Dewpoint
13 12 9 8 7 3 2 3 4 7 5 5 8 11 11 8 4 -4 -5 8 10 10 10 1 -3 -5 -4 -4 -5 -5 0 6 9 9 9 9 10 11 9 7 8 10 10
15 13 11 5 3 2 4 5 6 8 4 2 3 2 3 1 -4 -12 -3 8 10 10 3 -2 -4 -2 1 0 -1 -2 -5 -5 -1 8 8 8 10 10 7 9 8 9 9
15 13 9 6 5 4 5 8 9 8 5 3 1 -2 -4 -6 -9 -8 2 8 6 -0 -3 -4 4 7 5 7 1 0 -5 -7 -6 -4 -0 5 8 7 8 9 8 8 9
13 13 12 10 9 7 7 7 6 7 5 4 1 -4 -7 -7 -6 0 5 3 -2 -5 -5 -1 0 4 4 5 5 4 -0 -12 -9 -10 -10 -4 5 8 9 9 8 8 8
11 11 12 7 10 10 10 9 8 6 7 3 -0 -7 -5 -5 3 3 2 -3 -6 -4 1 1 3 4 6 5 4 -7 -10 -14 -14 -13 -12 -12 -5 6 8 8 6 7 6
11 12 11 10 8 10 10 9 8 7 8 7 -4 -8 -2 -0 3 0 -5 -6 -6 -2 2 2 4 5 5 5 5 2 -4 -14 -14 -15 -15 -12 -4 6 1 -2 1 -5 -2
9 10 11 12 11 11 10 10 10 9 8 10 -5 -0 1 4 2 -4 -5 -6 -6 1 4 4 4 4 5 5 4 3 -7 -12 -14 -15 -15 -13 -1 3 -2 -9 -9 -6 -8
11 10 11 11 12 10 9 8 9 11 10 11 3 4 6 4 -3 -4 -5 -7 -6 3 4 4 4 4 5 5 4 2 1 -6 -13 -15 -15 -15 -11 -3 -9 -6 -5 -9 -12
11 9 11 11 9 7 7 9 8 10 10 10 9 6 5 -0 -3 -4 -5 -7 -1 4 4 3 3 4 5 5 4 2 0 -3 -13 -14 -14 -14 -13 -11 -12 -10 -7 -12 -13
12 12 12 11 10 11 10 11 9 11 11 8 7 7 1 -3 -3 -3 -5 -8 -5 4 3 3 2 3 3 3 2 2 -1 -4 -11 -13 -12 -13 -14 -14 -11 -13 -13 -13 -12
11 11 12 11 11 11 10 9 9 10 10 8 7 5 -0 -1 -1 -2 -5 -8 -9 -2 3 2 2 2 1 1 0 -1 -3 -6 -8 -12 -11 -11 -12 -13 -14 -13 -12 -10 -12
11 10 11 11 11 11 8 8 8 9 8 9 6 4 -1 -0 1 -1 -4 -7 -8 -9 -5 0 -0 1 1 -0 -2 -3 -5 -7 -7 -9 -12 -10 -10 -11 -12 -12 -11 -11 -13
11 11 10 9 9 9 8 8 8 8 9 8 6 1 0 1 2 2 1 -3 -6 -7 -8 -5 -4 -2 -1 -3 -4 -5 -6 -6 -6 -6 -11 -10 -9 -9 -10 -11 -11 -11 -12
10 10 11 9 8 9 9 7 8 8 8 8 7 1 0 1 3 3 4 3 1 -2 -4 -5 -5 -4 -4 -5 -5 -5 -6 -6 -5 -5 -6 -9 -9 -8 -8 -9 -10 -10 -10
10 10 10 9 8 7 8 8 8 7 7 8 7 2 1 2 3 3 4 4 3 3 3 2 -3 -4 -4 -4 -5 -6 -5 -6 -4 -4 -4 -5 -5 -7 -5 -6 -6 -7 -9
10 10 9 9 8 7 8 7 6 6 8 7 7 3 1 1 1 3 4 4 4 4 5 5 4 1 -4 -3 -4 -5 -4 -4 -3 -3 -3 -3 -3 -3 -3 -3 -5 -6 -6
10 10 9 9 8 8 7 7 7 5 7 7 5 2 2 1 2 3 3 3 4 5 5 5 5 5 -0 -3 -4 -4 -3 -3 -2 -4 -3 -2 -2 -3 -2 -2 -4 -6 -5
10 9 9 9 9 8 8 7 7 6 5 4 2 2 3 1 2 2 2 4 4 4 5 4 5 5 4 1 -3 -3 -2 -2 -1 -3 -4 -2 -1 -2 -3 -2 -2 -4 -4
9 9 9 10 9 9 8 7 8 8 6 4 3 5 2 1 1 0 2 2 3 4 5 5 5 5 5 5 3 -1 -2 -2 -1 -1 -2 -2 -1 -1 -3 -2 -2 -2 -3
9 9 9 9 9 8 6 7 9 8 5 6 5 2 2 3 2 2 1 1 1 4 5 5 6 5 5 5 4 1 -0 -1 -1 -1 -1 -0 0 -0 -1 -2 -1 -2 -2
9 9 9 9 9 9 7 7 8 8 6 4 2 3 4 4 2 2 4 4 1 1 2 5 6 6 6 5 4 2 0 -1 -1 -0 -1 -1 1 1 0 -1 -0 -1 -2
8 9 9 9 8 9 7 6 7 8 7 5 4 4 4 2 3 4 3 1 1 -1 1 5 6 6 6 6 5 3 1 0 0 -0 -0 -0 0 1 1 0 -0 -1 -1
8 8 8 9 8 8 7 7 8 7 6 7 6 5 5 3 4 4 3 0 -0 0 1 2 5 7 7 7 6 4 2 2 2 1 1 0 0 0 1 1 -0 -1 -1
7 8 8 9 8 8 6 6 7 6 6 5 4 3 2 2 2 2 1 -0 1 2 2 2 4 7 8 8 7 6 4 4 4 4 3 3 1 1 1 1 0 -0 -1
5 6 7 8 8 8 6 4 4 5 4 2 2 2 1 1 -0 -1 -1 -1 2 6 6 5 6 7 8 9 8 7 6 5 5 5 5 3 3 2 3 1 2 0 0
4 5 4 5 5 7 5 4 4 4 3 2 1 0 1 3 1 -0 1 -1 2 6 8 7 7 7 8 8 8 8 7 6 6 6 5 4 4 4 3 3 3 3 2
Wind_Speed
15 25 26 25 27 31 32 34 32 27 26 26 29 30 31 28 26 26 28 29 28 27 24 22 22 20 20 21 22 22 22 22 24 23 24 23 24 23 23 22 22 22 23
14 27 31 27 33 34 32 30 31 27 27 27 27 26 26 26 26 28 31 31 29 28 26 24 21 21 22 23 24 23 20 18 19 23 23 23 24 23 25 24 23 23 23
15 20 25 28 28 31 32 28 24 27 24 24 24 24 24 27 29 32 33 32 30 28 26 23 24 23 21 22 25 23 21 18 17 19 21 24 23 23 24 22 22 21 22
13 19 23 21 20 25 29 28 29 24 22 25 25 25 26 28 32 34 35 33 29 27 26 25 22 22 21 22 21 19 19 19 18 18 19 22 22 22 22 22 21 21 21
15 18 21 19 13 15 14 16 26 30 23 28 28 27 30 32 34 35 33 31 29 28 27 25 23 24 23 22 21 20 19 18 16 17 18 19 21 22 22 22 21 21 20
21 23 18 22 24 31 15 21 25 27 29 27 31 33 34 36 33 33 32 31 30 30 27 25 24 23 22 22 20 20 20 18 16 17 18 19 21 20 19 18 18 18 18
22 23 22 29 40 32 22 15 19 31 39 34 34 34 36 37 35 33 33 33 32 31 28 23 22 21 21 19 18 18 20 18 17 17 18 19 21 19 18 17 17 17 17
16 15 20 31 34 22 19 23 17 32 41 38 35 37 40 38 35 33 33 32 32 33 28 22 20 20 20 17 17 18 18 17 17 17 17 19 18 17 17 17 17 17 17
12 12 15 20 20 11 25 35 36 34 45 42 39 41 40 38 35 32 32 33 33 33 29 22 20 20 18 15 15 14 15 16 16 17 17 18 17 16 17 17 16 16 16
10 9 13 21 27 23 7 9 21 48 47 43 40 40 35 33 32 32 32 32 33 31 28 23 19 18 17 14 12 11 14 14 15 15 16 17 16 15 15 15 15 15 14
8 12 25 28 30 19 19 10 24 40 42 41 38 41 41 39 34 32 31 31 32 30 27 23 17 14 13 10 10 10 11 12 13 13 13 13 13 13 13 13 13 13 14
11 11 14 18 18 20 14 11 34 43 37 36 37 41 40 37 33 30 29 29 30 29 27 23 18 14 11 10 10 8 8 10 10 11 11 11 11 12 12 12 11 12 13
10 13 15 15 16 17 19 33 44 44 41 39 37 40 39 36 34 32 30 28 27 25 24 23 19 15 12 8 9 7 7 8 8 9 9 9 9 9 9 8 9 9 9
9 14 16 15 16 20 25 36 33 44 44 40 40 39 39 35 32 29 27 26 24 23 22 20 18 17 13 11 7 7 7 6 6 7 7 7 6 6 5 6 6 7 9
12 18 19 19 23 26 29 34 42 45 42 38 36 36 36 31 26 25 25 24 23 21 18 18 16 13 11 10 8 6 5 4 4 5 6 5 5 5 5 4 4 7 8
11 21 21 21 27 28 34 38 46 48 43 42 41 33 32 32 33 30 26 23 20 19 17 13 11 10 9 7 7 6 4 4 3 3 3 4 4 4 5 7 7 8 8
15 18 20 24 28 30 34 38 45 50 45 42 44 41 36 34 31 28 24 23 20 17 15 12 11 10 10 8 7 6 5 5 3 4 1 1 3 3 4 5 6 7 9
14 19 23 26 29 35 35 41 44 42 41 45 45 37 33 32 28 23 22 21 18 15 13 11 10 11 10 10 9 8 8 6 5 6 7 4 5 6 6 6 8 9 10
13 16 22 28 33 37 39 44 38 38 40 42 39 34 33 31 25 24 22 18 17 16 13 12 12 10 10 9 10 10 9 8 8 8 9 9 9 8 8 8 9 11 11
15 17 20 28 31 35 41 41 37 36 36 35 35 33 30 28 27 23 19 17 17 16 15 13 12 11 11 9 10 12 13 12 12 12 12 12 13 12 9 10 11 12 12
18 20 23 24 22 33 41 42 38 37 34 35 34 30 29 26 22 22 20 18 15 16 15 14 14 16 15 13 14 16 18 18 19 18 18 18 17 15 13 13 14 14 14
20 24 29 25 26 32 39 43 38 38 33 34 33 30 27 24 24 20 19 17 18 17 17 18 18 18 17 17 20 20 18 23 26 25 25 24 21 18 17 17 17 19 18
24 25 28 24 25 30 40 41 38 36 34 32 30 28 27 24 21 21 19 19 22 21 21 21 21 21 21 22 26 23 11 18 19 22 27 29 27 24 21 21 22 22 21
23 25 26 25 26 31 43 43 40 42 36 36 30 26 24 24 24 24 23 25 25 25 27 26 24 25 26 27 28 30 31 28 18 15 21 24 29 27 24 24 24 26 25
23 26 27 27 30 33 42 44 42 41 38 37 34 30 27 29 31 30 31 29 28 27 27 26 28 28 30 31 32 31 32 33 36 34 26 24 21 26 25 22 25 27 27
25 27 29 32 34 36 46 47 46 44 41 39 37 36 35 33 34 35 36 33 30 31 31 31 29 30 31 32 33 31 30 31 32 34 34 27 29 25 24 29 25 25 25
Wind_Direction
200 191 191 197 191 185 179 171 166 161 165 161 163 160 160 158 157 151 145 144 142 143 141 139 137 135 130 121 115 112 107 103 99 99 96 92 92 92 90 85 88 89 94
181 184 189 184 180 177 174 171 169 173 167 166 168 169 172 169 165 153 149 147 145 145 143 141 139 131 119 111 104 104 102 101 104 105 104 101 97 92 94 90 87 89 88
190 185 180 183 192 183 174 165 162 169 174 173 175 175 174 168 159 153 150 149 148 146 141 136 127 123 118 108 102 96 97 103 103 107 105 99 96 94 100 104 100 98 91
201 186 180 177 198 188 186 178 177 168 183 185 182 178 173 163 157 151 149 146 144 143 139 139 134 121 116 107 97 89 88 95 98 99 101 102 98 94 99 99 97 95 92
196 201 211 209 177 163 167 178 171 170 185 192 185 177 168 158 154 149 146 144 143 141 139 136 129 119 114 107 96 89 89 91 94 96 96 98 98 100 102 100 90 91 86
199 202 209 220 209 196 219 231 227 202 199 195 184 173 165 156 154 149 146 143 143 143 140 138 124 119 116 109 100 90 84 83 91 93 96 96 96 95 93 92 90 83 82
210 217 205 195 191 215 218 208 205 208 208 195 181 167 160 155 156 150 148 145 145 143 140 135 128 124 121 114 105 95 91 83 85 89 91 92 92 92 90 85 85 86 82
226 216 214 213 219 216 225 234 233 210 188 183 171 165 160 155 156 149 149 145 145 144 141 139 130 129 129 120 105 95 84 75 79 83 89 90 91 90 85 85 81 78 76
239 235 204 201 202 196 230 233 237 218 183 181 174 166 159 153 152 147 147 142 144 144 143 143 134 129 128 123 111 101 92 81 81 86 90 90 91 87 83 82 83 79 77
196 234 193 177 169 187 162 228 215 173 165 162 165 160 155 151 149 148 146 142 144 148 146 146 137 129 125 125 112 101 93 87 83 91 91 89 91 92 92 88 83 81 77
175 183 178 181 187 191 217 206 155 157 178 161 168 162 155 153 151 149 144 141 142 148 150 149 146 139 130 126 116 107 94 88 85 89 90 91 94 92 89 86 79 75 75
157 166 169 179 188 191 203 173 164 161 152 162 167 160 155 150 149 145 141 143 143 146 151 154 157 157 157 148 137 120 103 94 83 85 88 91 95 89 87 80 72 60 56
181 165 167 169 181 188 174 155 156 151 159 160 164 158 154 153 152 150 148 147 145 146 148 150 156 161 159 161 143 126 105 89 83 94 99 94 88 84 81 73 63 56 44
189 186 179 182 182 175 173 171 164 166 160 160 166 161 159 159 156 156 152 151 148 145 143 146 155 155 151 150 143 139 125 103 91 83 90 85 78 71 64 52 39 35 34
182 186 176 176 167 163 164 169 167 161 160 165 165 163 161 157 161 162 161 157 153 147 152 146 148 152 152 154 158 159 136 126 105 93 81 68 41 33 24 5 12 15 13
186 180 176 175 169 168 166 166 164 164 161 164 168 160 164 175 174 172 168 162 160 155 152 143 143 149 161 161 168 172 172 157 138 134 72 40 24 11 351 340 2 359 348
199 191 191 181 174 171 170 169 171 171 168 175 173 171 186 180 176 177 172 174 166 158 157 155 157 162 175 181 185 197 200 189 193 195 189 336 322 299 317 335 319 328 331
205 201 193 180 181 178 181 174 170 172 174 175 175 184 185 183 181 179 187 179 173 173 170 173 178 172 180 192 207 216 219 215 222 224 228 264 280 280 286 308 307 307 321
225 206 195 193 188 185 180 176 173 175 183 183 187 187 186 187 184 192 188 185 191 189 190 193 194 193 201 204 215 229 232 234 241 239 246 264 269 278 273 286 296 300 303
211 210 196 201 197 183 178 178 180 185 188 190 188 186 186 189 195 194 190 197 206 203 208 212 214 222 229 231 234 239 244 250 247 247 250 260 260 264 268 279 286 294 291
206 206 199 185 189 189 183 184 185 189 188 190 191 193 195 196 193 197 197 207 219 225 228 231 233 232 241 243 240 242 247 249 253 254 255 257 257 260 267 272 279 281 286
196 203 201 190 194 194 191 188 190 190 189 192 193 200 202 200 205 205 211 224 238 240 235 237 241 243 247 249 245 246 251 250 253 253 253 254 256 258 266 273 272 278 280
198 200 201 206 196 197 190 191 192 192 194 195 200 204 205 213 218 224 229 240 248 249 249 246 245 246 248 247 246 238 233 240 257 258 254 253 252 252 257 267 272 275 278
200 200 206 204 203 196 192 190 194 196 200 201 203 207 214 222 230 232 239 246 250 251 251 250 251 251 251 249 248 243 243 252 251 256 259 259 248 247 251 262 267 270 273
196 197 198 202 204 202 196 195 199 201 206 207 212 215 224 231 234 237 241 247 248 249 252 254 252 252 254 252 250 251 252 256 258 255 260 250 245 250 255 259 265 265 269
199 196 196 194 193 193 192 196 200 202 207 210 214 222 225 236 237 238 241 248 250 251 252 251 256 255 259 256 256 253 260 260 266 267 249 242 261 258 248 266 261 276 274
Height
1487 1489 1493 1496 1498 1499 1498 1493 1492 1516 1512 1513 1515 1517 1519 1519 1520 1521 1522 1526 1526 1529 1531 1535 1535 1539 1538 1538 1538 1539 1540 1541 1543 1545 1545 1546 1547 1549 1548 1549 1549 1551 1552
1485 1486 1487 1494 1497 1496 1497 1498 1497 1508 1517 1513 1516 1515 1518 1520 1519 1519 1521 1525 1528 1529 1531 1535 1536 1539 1541 1540 1540 1541 1542 1544 1544 1546 1546 1547 1550 1551 1552 1553 1553 1555 1554
1488 1490 1492 1494 1502 1499 1496 1496 1501 1503 1514 1515 1516 1517 1519 1521 1521 1520 1521 1524 1527 1530 1531 1536 1539 1540 1543 1544 1544 1545 1545 1546 1546 1547 1547 1549 1551 1553 1554 1555 1555 1556 1556
1486 1490 1492 1492 1502 1500 1501 1499 1498 1504 1516 1517 1518 1518 1521 1522 1524 1524 1524 1525 1529 1531 1532 1536 1539 1541 1545 1546 1546 1548 1547 1547 1549 1549 1549 1550 1552 1555 1555 1556 1557 1558 1558
1485 1488 1488 1486 1489 1499 1501 1505 1502 1501 1517 1520 1518 1518 1521 1521 1529 1528 1527 1527 1530 1532 1535 1537 1541 1543 1546 1547 1549 1550 1549 1550 1551 1552 1552 1553 1553 1556 1557 1558 1557 1558 1559
1483 1486 1489 1486 1482 1494 1500 1505 1508 1509 1513 1526 1518 1516 1520 1522 1530 1530 1529 1528 1531 1534 1537 1538 1542 1544 1548 1550 1552 1552 1552 1552 1553 1553 1554 1555 1555 1558 1557 1558 1559 1558 1560
1480 1484 1486 1488 1487 1489 1492 1501 1503 1508 1508 1522 1517 1517 1521 1525 1531 1530 1531 1529 1532 1535 1538 1540 1543 1546 1550 1552 1553 1555 1554 1555 1556 1556 1556 1557 1558 1560 1559 1561 1561 1561 1561
1479 1481 1482 1485 1490 1486 1491 1495 1499 1502 1507 1516 1515 1521 1523 1525 1532 1531 1534 1532 1534 1536 1538 1542 1546 1549 1551 1554 1556 1557 1557 1558 1558 1558 1559 1559 1559 1562 1561 1563 1564 1564 1563
1478 1478 1476 1481 1484 1485 1486 1487 1491 1494 1498 1509 1517 1522 1523 1523 1530 1532 1537 1535 1538 1538 1540 1543 1547 1550 1554 1557 1558 1559 1560 1560 1560 1560 1561 1561 1562 1563 1563 1565 1567 1566 1566
1477 1475 1475 1477 1481 1481 1485 1476 1481 1487 1494 1503 1518 1522 1522 1526 1530 1538 1540 1537 1539 1544 1543 1544 1548 1552 1555 1558 1559 1562 1561 1562 1562 1562 1562 1562 1564 1565 1566 1567 1568 1569 1569
1478 1478 1478 1479 1478 1479 1483 1488 1486 1488 1490 1502 1516 1520 1520 1528 1536 1541 1541 1539 1540 1545 1546 1547 1549 1552 1556 1558 1561 1563 1563 1564 1564 1564 1564 1565 1566 1566 1568 1568 1569 1570 1570
1475 1478 1480 1479 1481 1480 1484 1486 1486 1491 1499 1508 1517 1518 1525 1531 1538 1542 1542 1543 1543 1545 1549 1549 1551 1554 1558 1560 1563 1565 1566 1565 1565 1566 1567 1567 1568 1568 1568 1569 1570 1571 1572
1475 1476 1478 1479 1480 1481 1484 1486 1491 1495 1501 1508 1517 1518 1525 1532 1536 1538 1542 1544 1545 1547 1550 1551 1553 1557 1560 1564 1564 1565 1566 1567 1567 1567 1568 1570 1570 1571 1570 1571 1571 1571 1572
1475 1476 1478 1480 1480 1482 1484 1490 1494 1497 1501 1509 1518 1521 1526 1533 1536 1540 1542 1545 1547 1549 1551 1553 1555 1558 1561 1563 1565 1566 1567 1568 1568 1568 1570 1571 1571 1571 1571 1572 1573 1574 1573
1476 1477 1479 1481 1481 1482 1484 1488 1493 1500 1506 1512 1517 1523 1528 1533 1537 1540 1543 1546 1547 1548 1553 1554 1556 1558 1561 1564 1565 1568 1569 1569 1570 1569 1570 1571 1572 1572 1572 1573 1573 1574 1573
1475 1477 1479 1482 1483 1485 1488 1490 1495 1500 1506 1512 1517 1523 1529 1534 1537 1541 1544 1546 1548 1550 1552 1555 1556 1558 1562 1565 1566 1568 1570 1569 1569 1570 1571 1572 1573 1573 1573 1574 1574 1574 1574
1474 1476 1479 1482 1485 1488 1491 1494 1498 1504 1507 1513 1520 1527 1532 1534 1537 1542 1543 1547 1548 1549 1552 1555 1557 1560 1563 1565 1567 1569 1570 1570 1570 1570 1572 1572 1572 1573 1574 1573 1573 1575 1574
1473 1474 1477 1480 1484 1488 1491 1496 1501 1505 1510 1516 1522 1526 1531 1535 1539 1542 1544 1547 1547 1551 1553 1555 1558 1560 1562 1565 1566 1569 1570 1570 1570 1570 1571 1571 1572 1573 1572 1572 1572 1573 1573
1470 1472 1475 1479 1483 1486 1491 1497 1501 1507 1512 1517 1523 1527 1531 1535 1537 1541 1543 1544 1547 1550 1552 1556 1558 1559 1562 1563 1566 1567 1568 1569 1569 1568 1570 1570 1571 1571 1570 1571 1570 1571 1572
1468 1471 1474 1477 1481 1486 1492 1498 1504 1510 1514 1520 1524 1528 1530 1534 1537 1539 1542 1544 1547 1548 1552 1555 1558 1559 1563 1563 1565 1567 1567 1567 1567 1566 1567 1567 1568 1568 1567 1568 1568 1569 1570
1468 1470 1473 1477 1481 1486 1492 1498 1504 1508 1512 1518 1523 1527 1530 1534 1535 1537 1540 1544 1546 1548 1552 1554 1557 1557 1561 1562 1563 1564 1564 1565 1563 1563 1563 1564 1564 1565 1564 1565 1567 1566 1566
1466 1470 1474 1476 1482 1486 1491 1497 1504 1509 1513 1517 1521 1525 1529 1532 1535 1536 1540 1542 1548 1549 1550 1553 1554 1556 1558 1560 1561 1562 1562 1562 1558 1557 1559 1559 1560 1562 1560 1562 1562 1564 1563
1464 1467 1471 1475 1479 1485 1492 1499 1503 1509 1514 1517 1519 1523 1527 1530 1532 1536 1539 1541 1545 1547 1548 1550 1551 1552 1554 1555 1557 1559 1557 1554 1553 1552 1553 1553 1555 1555 1557 1558 1557 1559 1559
1462 1466 1471 1475 1478 1484 1489 1496 1500 1505 1509 1512 1516 1521 1524 1528 1531 1533 1537 1539 1541 1542 1545 1546 1547 1549 1550 1550 1552 1551 1550 1551 1550 1548 1548 1548 1549 1549 1551 1552 1553 1553 1553
1461 1464 1469 1474 1478 1484 1488 1493 1498 1502 1507 1511 1515 1517 1522 1526 1528 1529 1532 1534 1536 1538 1540 1541 1544 1543 1545 1545 1546 1543 1543 1546 1547 1547 1544 1544 1544 1545 1545 1546 1546 1547 1546
1459 1463 1467 1470 1473 1478 1483 1489 1494 1498 1503 1508 1511 1514 1517 1521 1523 1524 1528 1529 1530 1533 1535 1536 1538 1539 1539 1540 1540 1539 1539 1539 1539 1541 1538 1538 1538 1540 1541 1541 1541 1542 1541